Location: Grand Rapids
(42.9630°N, 85.6680°W)
Time: 02:06:39
(UTC-04:00)

A-11 Canister half - Pass Details

Date: 04 June 2024
Orbit: 1524 x 1684 km, 47.3° (Epoch: 21 June)

Event Time Altitude Azimuth Distance (km) Brightness Sun altitude
Rises 00:30:33 0° 292° (WNW) 4,703 12.1 -22.6°
Reaches altitude 10° 00:33:34 10° 292° (WNW) 3,733 11.5 -22.7°
Maximum altitude 00:43:03 86° 205° (SSW) 1,590 8.9 -23.2°
Enters shadow 00:50:43 19° 119° (ESE) 3,179 10.3 -23.5°
Drops below altitude 10° 00:52:52 10° 119° (ESE) 3,847 - -23.6°
Sets 00:56:01 0° 119° (ESE) 4,852 - -23.7°
